KA5FVT Weather Reports


time (UTC)temp
C
wind
direction
speed
KPH
gust
KPH
rain 1hr
cm
rain 24hr
cm
rain mn
cm
humidity
%
barometer
mb
20260507003930 25 340 1.6 3.2 0.00 0.00 0.00 78 1008.9
20260507003427 26 340 0.0 3.2 0.00 0.00 0.00 77 1008.7
20260507002929 26 339 1.6 3.2 0.00 0.00 0.00 76 1008.8
20260507002427 26 339 1.6 8.0 0.00 0.00 0.00 75 1008.6
20260507001930 27 328 1.6 4.8 0.00 0.00 0.00 75 1008.5
20260507001426 28 329 1.6 4.8 0.00 0.00 0.00 74 1008.4
20260507000927 28 325 1.6 3.2 0.00 0.00 0.00 81 1008.0
20260507000428 28 325 0.0 0.0 0.00 0.00 0.00 81 1008.0
20260506235926 28 325 0.0 0.0 0.00 0.00 0.00 81 1007.9
20260506235426 28 325 0.0 0.0 0.00 0.00 0.00 80 1008.0
20260506234926 28 325 0.0 0.0 0.00 0.00 0.00 80 1008.1
20260506234427 28 325 0.0 0.0 0.00 0.00 0.00 80 1008.1
20260506233926 28 325 0.0 0.0 0.00 0.00 0.00 80 1007.9
20260506233427 28 325 0.0 0.0 0.00 0.00 0.00 81 1007.9
20260506232927 28 325 0.0 0.0 0.00 0.00 0.00 80 1007.9
20260506232427 28 325 0.0 3.2 0.00 0.00 0.00 80 1007.8
20260506231927 28 325 0.0 0.0 0.00 0.00 0.00 80 1007.8
20260506231426 28 325 0.0 0.0 0.00 0.00 0.00 81 1007.8
20260506230927 28 325 0.0 0.0 0.00 0.00 0.00 81 1007.9
20260506230430 28 325 0.0 0.0 0.00 0.00 0.00 81 1007.9
20260506225927 28 325 0.0 0.0 0.00 0.00 0.00 81 1007.9
20260506225427 28 325 0.0 0.0 0.00 0.00 0.00 80 1008.0
20260506224926 29 325 0.0 0.0 0.00 0.00 0.00 80 1007.9
20260506224427 29 325 0.0 0.0 0.00 0.00 0.00 80 1007.9
20260506223927 29 325 0.0 0.0 0.00 0.00 0.00 79 1007.8
20260506223427 29 325 0.0 0.0 0.00 0.00 0.00 79 1007.8
20260506222926 29 325 0.0 1.6 0.00 0.00 0.00 78 1007.8
20260506222427 29 325 0.0 0.0 0.00 0.00 0.00 79 1007.7
20260506221927 29 325 0.0 0.0 0.00 0.00 0.00 79 1007.7
20260506221427 29 325 0.0 0.0 0.00 0.00 0.00 78 1007.6
20260506220926 29 325 0.0 0.0 0.00 0.00 0.00 78 1007.6
20260506220427 29 325 0.0 1.6 0.00 0.00 0.00 78 1007.5
20260506215927 29 325 0.0 3.2 0.00 0.00 0.00 78 1007.6
20260506215427 29 325 1.6 3.2 0.00 0.00 0.00 78 1007.6
20260506214927 29 325 0.0 1.6 0.00 0.00 0.00 81 1007.5
20260506214429 28 325 0.0 0.0 0.00 0.00 0.00 81 1007.6
20260506213930 28 325 0.0 1.6 0.00 0.00 0.00 80 1007.8
20260506213429 28 325 0.0 3.2 0.00 0.00 0.00 79 1007.8
20260506212926 29 325 0.0 1.6 0.00 0.00 0.00 79 1007.8
20260506212427 29 325 0.0 1.6 0.00 0.00 0.00 79 1007.6
20260506211927 29 325 0.0 3.2 0.00 0.00 0.00 78 1007.6
20260506211431 29 325 1.6 3.2 0.00 0.00 0.00 78 1007.6
20260506210927 29 325 0.0 0.0 0.00 0.00 0.00 78 1007.5
20260506210426 29 325 0.0 0.0 0.00 0.00 0.00 77 1007.7
20260506205927 29 325 0.0 0.0 0.00 0.00 0.00 77 1007.7
20260506205426 30 325 0.0 1.6 0.00 0.00 0.00 77 1007.8
20260506204927 30 325 1.6 1.6 0.00 0.00 0.00 76 1007.9
20260506204426 30 325 0.0 0.0 0.00 0.00 0.00 78 1008.0
20260506203927 30 325 0.0 0.0 0.00 0.00 0.00 77 1008.1
20260506203430 30 325 0.0 0.0 0.00 0.00 0.00 76 1008.1
20260506202927 30 325 0.0 0.0 0.00 0.00 0.00 76 1008.0
20260506202427 30 325 0.0 1.6 0.00 0.00 0.00 75 1008.1
20260506201930 30 325 0.0 1.6 0.00 0.00 0.00 76 1008.1
20260506201426 30 325 0.0 4.8 0.00 0.00 0.00 75 1008.1
20260506200927 30 36 0.0 1.6 0.00 0.00 0.00 75 1008.3
20260506200427 30 36 0.0 1.6 0.00 0.00 0.00 76 1008.4
20260506195927 30 36 0.0 1.6 0.00 0.00 0.00 76 1008.4
20260506195426 30 25 0.0 0.0 0.00 0.00 0.00 75 1008.5
20260506194930 30 25 0.0 1.6 0.00 0.00 0.00 75 1008.5
20260506194426 30 25 0.0 1.6 0.00 0.00 0.00 75 1008.5
20260506193927 30 25 0.0 4.8 0.00 0.00 0.00 74 1008.5
20260506193427 30 243 0.0 3.2 0.00 0.00 0.00 76 1008.5
20260506192927 30 244 1.6 3.2 0.00 0.00 0.00 77 1008.5
20260506192427 29 248 0.0 1.6 0.00 0.00 0.00 77 1008.5
20260506191927 29 248 0.0 1.6 0.00 0.00 0.00 78 1008.7
20260506191430 28 271 1.6 1.6 0.00 0.00 0.00 79 1008.9
20260506190930 28 274 0.0 1.6 0.00 0.00 0.00 79 1009.0
20260506190427 28 274 0.0 1.6 0.00 0.00 0.00 79 1009.0
20260506185930 28 274 1.6 1.6 0.00 0.00 0.00 78 1009.1
20260506185427 29 274 0.0 1.6 0.00 0.00 0.00 78 1009.0
20260506184927 29 274 0.0 1.6 0.00 0.00 0.00 78 1009.1
20260506184426 29 274 0.0 1.6 0.00 0.00 0.00 77 1008.9
20260506183926 29 274 0.0 1.6 0.00 0.00 0.00 77 1009.1
20260506183427 29 274 1.6 1.6 0.00 0.00 0.00 77 1009.2
20260506182927 28 269 1.6 1.6 0.00 0.00 0.00 78 1009.4
20260506182427 28 269 0.0 1.6 0.00 0.00 0.00 79 1009.3
20260506181926 28 269 0.0 4.8 0.00 0.00 0.00 79 1009.4
20260506181427 28 279 0.0 4.8 0.00 0.00 0.00 79 1009.6
20260506180929 28 205 1.6 1.6 0.00 0.00 0.00 81 1009.8
20260506180427 28 205 0.0 0.0 0.00 0.00 0.00 82 1009.8
20260506175927 27 205 0.0 0.0 0.00 0.00 0.00 81 1009.8
20260506175426 27 205 0.0 0.0 0.00 0.00 0.00 82 1010.0
20260506174926 27 205 0.0 0.0 0.00 0.00 0.00 82 1010.1
20260506174430 27 205 0.0 1.6 0.00 0.00 0.00 83 1010.2
20260506173927 27 205 0.0 0.0 0.00 0.00 0.00 83 1010.2
20260506173426 27 205 0.0 0.0 0.00 0.00 0.00 83 1010.4
20260506172927 27 205 0.0 0.0 0.00 0.00 0.00 83 1010.5
20260506172427 27 205 0.0 0.0 0.00 0.00 0.00 82 1010.5
20260506171927 27 205 0.0 1.6 0.00 0.00 0.00 82 1010.6
20260506171427 27 205 0.0 0.0 0.00 0.00 0.00 82 1010.5
20260506170926 27 205 0.0 0.0 0.00 0.00 0.00 83 1010.6
20260506170427 27 205 0.0 1.6 0.00 0.00 0.00 82 1010.6
20260506165926 27 205 0.0 1.6 0.00 0.00 0.00 84 1010.6
20260506165427 27 205 1.6 1.6 0.00 0.00 0.00 84 1010.5
20260506164927 27 205 0.0 0.0 0.00 0.00 0.00 84 1010.3
20260506164426 27 205 0.0 1.6 0.00 0.00 0.00 84 1010.3
20260506163927 27 205 0.0 1.6 0.00 0.00 0.00 83 1010.3
20260506163429 27 205 0.0 1.6 0.00 0.00 0.00 84 1010.3
20260506162927 27 205 1.6 1.6 0.00 0.00 0.00 83 1010.2
20260506162426 27 205 0.0 0.0 0.00 0.00 0.00 85 1010.2
20260506161927 27 205 0.0 0.0 0.00 0.00 0.00 85 1010.1
20260506161426 27 205 0.0 0.0 0.00 0.00 0.00 85 1010.0
20260506160926 27 205 0.0 0.0 0.00 0.00 0.00 85 1010.0
20260506160426 27 205 0.0 0.0 0.00 0.00 0.00 84 1009.9
20260506155926 27 205 0.0 0.0 0.00 0.00 0.00 84 1010.0
20260506155427 27 205 0.0 0.0 0.00 0.00 0.00 84 1010.0
20260506154927 27 205 0.0 0.0 0.00 0.00 0.00 84 1010.0
20260506154427 27 205 0.0 0.0 0.00 0.00 0.00 84 1009.9
20260506153927 27 205 0.0 0.0 0.00 0.00 0.00 84 1009.9
20260506153426 27 205 0.0 0.0 0.00 0.00 0.00 83 1010.0
20260506152927 27 205 0.0 1.6 0.00 0.00 0.00 84 1009.9
20260506152427 27 205 0.0 0.0 0.00 0.00 0.00 85 1009.8
20260506151926 26 205 0.0 0.0 0.00 0.00 0.00 85 1009.7
20260506151430 26 205 0.0 1.6 0.00 0.00 0.00 85 1009.7
20260506150927 26 205 0.0 0.0 0.00 0.00 0.00 87 1009.6
20260506150427 26 205 0.0 0.0 0.00 0.00 0.00 87 1009.5
20260506145926 26 205 0.0 1.6 0.00 0.00 0.00 87 1009.5
20260506145427 26 205 0.0 1.6 0.00 0.00 0.00 87 1009.4
20260506144927 26 205 1.6 1.6 0.00 0.00 0.00 88 1009.4
20260506144427 26 205 0.0 0.0 0.00 0.00 0.00 88 1009.3
20260506143927 26 205 0.0 0.0 0.00 0.00 0.00 89 1009.2
20260506143426 26 205 0.0 0.0 0.00 0.00 0.00 89 1009.2
20260506142927 25 205 0.0 0.0 0.00 0.00 0.00 90 1009.1
20260506142430 25 205 0.0 1.6 0.00 0.00 0.00 90 1009.2
20260506141929 25 205 0.0 1.6 0.00 0.00 0.00 90 1009.2
20260506141429 25 205 0.0 0.0 0.00 0.00 0.00 90 1009.1
20260506140926 25 205 0.0 0.0 0.00 0.00 0.00 91 1009.2
20260506140427 25 205 0.0 0.0 0.00 0.00 0.00 91 1009.2
20260506135926 25 205 0.0 0.0 0.00 0.00 0.00 91 1009.3
20260506135427 25 205 0.0 0.0 0.00 0.00 0.00 91 1009.1
20260506134926 25 205 0.0 0.0 0.00 0.00 0.00 91 1009.3
20260506134427 25 205 0.0 0.0 0.00 0.00 0.00 91 1009.4
20260506133927 25 205 0.0 0.0 0.00 0.00 0.00 92 1009.4
20260506133426 25 205 0.0 0.0 0.00 0.00 0.00 92 1009.3
20260506132926 25 205 0.0 0.0 0.00 0.00 0.00 92 1009.5
20260506132430 25 205 0.0 0.0 0.00 0.00 0.00 92 1009.6
20260506131927 25 205 0.0 0.0 0.00 0.00 0.00 92 1009.6
20260506131426 25 205 0.0 0.0 0.00 0.00 0.00 92 1009.5
20260506130927 24 205 0.0 0.0 0.00 0.00 0.00 93 1009.4
20260506130427 24 205 0.0 0.0 0.00 0.00 0.00 93 1009.4
20260506125926 24 205 0.0 0.0 0.00 0.00 0.00 93 1009.4
20260506125427 24 205 0.0 0.0 0.00 0.00 0.00 93 1009.4
20260506124929 24 205 0.0 0.0 0.00 0.00 0.00 93 1009.3
20260506124426 24 205 0.0 0.0 0.00 0.00 0.00 93 1009.2
20260506123927 24 205 0.0 0.0 0.00 0.00 0.00 93 1009.4
20260506123430 24 205 0.0 0.0 0.00 0.00 0.00 93 1009.2
20260506122926 24 205 0.0 0.0 0.00 0.00 0.00 93 1009.3
20260506122426 23 205 0.0 0.0 0.00 0.00 0.00 93 1009.2
20260506121926 23 205 0.0 0.0 0.00 0.00 0.00 93 1009.1
20260506121430 23 205 0.0 0.0 0.00 0.00 0.00 93 1009.2
20260506120926 23 205 0.0 0.0 0.00 0.00 0.00 93 1009.2
20260506120427 23 205 0.0 0.0 0.00 0.00 0.00 93 1009.1
20260506115927 23 205 0.0 0.0 0.00 0.00 0.00 92 1009.1
20260506115427 23 205 0.0 0.0 0.00 0.00 0.00 92 1009.0
20260506114927 23 205 0.0 0.0 0.00 0.00 0.00 92 1009.0
20260506114426 23 205 0.0 0.0 0.00 0.00 0.00 92 1009.0
20260506113929 23 205 0.0 0.0 0.00 0.00 0.00 92 1008.8
20260506113426 23 205 0.0 0.0 0.00 0.00 0.00 92 1008.7
20260506112927 23 205 0.0 0.0 0.00 0.00 0.00 92 1008.7
20260506112426 23 205 0.0 0.0 0.00 0.00 0.00 92 1008.6
20260506111927 23 205 0.0 0.0 0.00 0.00 0.00 92 1008.5
20260506111426 23 205 0.0 0.0 0.00 0.00 0.00 92 1008.4
20260506110927 24 205 0.0 0.0 0.00 0.00 0.00 92 1008.3
20260506110426 24 205 0.0 0.0 0.00 0.00 0.00 92 1008.2
20260506105926 24 205 0.0 0.0 0.00 0.00 0.00 91 1008.1
20260506105427 24 205 0.0 0.0 0.00 0.00 0.00 91 1008.0
20260506104927 24 205 0.0 0.0 0.00 0.00 0.00 91 1007.9
20260506104427 24 205 0.0 0.0 0.00 0.00 0.00 91 1008.0
20260506103927 24 205 0.0 0.0 0.00 0.00 0.00 91 1008.0
20260506103429 24 205 0.0 0.0 0.00 0.00 0.00 90 1008.0
20260506102926 24 205 0.0 0.0 0.00 0.00 0.00 90 1008.0
20260506102426 24 205 0.0 0.0 0.00 0.00 0.00 90 1007.9
20260506101927 24 205 0.0 0.0 0.00 0.00 0.00 90 1008.0
20260506101427 24 205 0.0 1.6 0.00 0.00 0.00 90 1008.0
20260506100927 24 205 0.0 0.0 0.00 0.00 0.00 90 1008.0
20260506100426 24 205 0.0 0.0 0.00 0.00 0.00 90 1007.9
20260506095926 24 205 0.0 0.0 0.00 0.00 0.00 90 1007.9
20260506095426 24 205 0.0 0.0 0.00 0.00 0.00 90 1007.9
20260506094929 24 205 0.0 0.0 0.00 0.00 0.00 89 1007.8
20260506094429 24 205 0.0 0.0 0.00 0.00 0.00 89 1007.6
20260506093927 24 205 0.0 0.0 0.00 0.00 0.00 89 1007.5
20260506093427 25 205 0.0 1.6 0.00 0.00 0.00 89 1007.5
20260506092929 25 205 0.0 0.0 0.00 0.00 0.00 89 1007.4
20260506092427 25 205 0.0 1.6 0.00 0.00 0.00 89 1007.6
20260506091926 25 205 0.0 1.6 0.00 0.00 0.00 89 1007.6
20260506091427 25 205 0.0 1.6 0.00 0.00 0.00 89 1007.5
20260506090926 25 205 1.6 3.2 0.00 0.00 0.00 89 1007.7
20260506090429 25 206 0.0 1.6 0.00 0.00 0.00 89 1007.8
20260506085927 25 206 0.0 3.2 0.00 0.00 0.00 89 1007.7
20260506085430 25 206 0.0 0.0 0.00 0.00 0.00 89 1007.8
20260506084927 25 206 0.0 1.6 0.00 0.00 0.00 89 1007.9
20260506084426 25 206 0.0 1.6 0.00 0.00 0.00 89 1007.6
20260506083927 25 206 0.0 1.6 0.00 0.00 0.00 88 1007.8
20260506083427 25 206 0.0 3.2 0.00 0.00 0.00 88 1007.8
20260506082927 25 206 0.0 1.6 0.00 0.00 0.00 88 1007.9
20260506082427 25 206 0.0 3.2 0.00 0.00 0.00 88 1007.9
20260506081927 25 206 0.0 0.0 0.00 0.00 0.00 88 1008.0
20260506081430 25 206 0.0 1.6 0.00 0.00 0.00 88 1008.1
20260506080926 25 206 0.0 1.6 0.00 0.00 0.00 88 1008.1
20260506080427 25 206 0.0 0.0 0.00 0.00 0.00 88 1008.1
20260506073426 25 206 0.0 1.6 0.00 0.00 0.00 88 1008.6
20260506072926 25 206 0.0 1.6 0.00 0.00 0.00 88 1008.7
20260506072429 25 206 0.0 0.0 0.00 0.00 0.00 88 1008.7
20260506071927 25 206 0.0 1.6 0.00 0.00 0.00 88 1008.7
20260506071427 25 206 0.0 3.2 0.00 0.00 0.00 88 1008.8
20260506070926 25 206 0.0 1.6 0.00 0.00 0.00 88 1008.8
20260506070426 25 206 0.0 3.2 0.00 0.00 0.00 88 1008.8
20260506062427 25 206 0.0 1.6 0.00 0.00 0.00 88 1008.8
20260506061926 25 206 0.0 1.6 0.00 0.00 0.00 88 1008.9
20260506061426 25 206 0.0 0.0 0.00 0.00 0.00 88 1008.9
20260506060926 25 206 0.0 0.0 0.00 0.00 0.00 88 1008.9
20260506060427 25 206 0.0 0.0 0.00 0.00 0.00 87 1008.9
20260506050930 25 206 0.0 1.6 0.00 0.00 0.00 87 1009.1
20260506050427 25 207 0.0 1.6 0.00 0.00 0.00 86 1009.0
20260506044926 25 163 1.6 3.2 0.00 0.00 0.00 85 1008.7
20260506044426 25 165 1.6 3.2 0.00 0.00 0.00 85 1008.9
20260506043927 25 165 1.6 3.2 0.00 0.00 0.00 85 1009.0
20260506043427 25 164 0.0 1.6 0.00 0.00 0.00 85 1009.1
20260506042926 25 164 0.0 1.6 0.00 0.00 0.00 85 1009.1
20260506042427 26 164 0.0 1.6 0.00 0.00 0.00 84 1009.0
20260506041927 26 164 0.0 1.6 0.00 0.00 0.00 84 1008.8
20260506041426 26 164 0.0 1.6 0.00 0.00 0.00 84 1008.9
20260506040929 26 164 0.0 3.2 0.00 0.00 0.00 84 1009.0
20260506040426 26 163 0.0 0.0 0.00 0.00 0.00 84 1008.9
20260506035927 26 163 0.0 0.0 0.00 0.00 0.00 83 1008.8
20260506035426 26 163 0.0 3.2 0.00 0.00 0.00 83 1008.7
20260506034930 26 157 0.0 1.6 0.00 0.00 0.00 83 1008.6
20260506034427 26 157 0.0 6.4 0.00 0.00 0.00 83 1008.5
20260506033926 26 185 1.6 3.2 0.00 0.00 0.00 83 1008.6
20260506033426 26 185 0.0 1.6 0.00 0.00 0.00 83 1008.6
20260506032926 26 185 1.6 1.6 0.00 0.00 0.00 83 1008.5
20260506032427 26 185 0.0 1.6 0.00 0.00 0.00 83 1008.4
20260506031927 26 185 0.0 1.6 0.00 0.00 0.00 83 1008.3
20260506031426 26 185 0.0 1.6 0.00 0.00 0.00 83 1008.1
20260506030927 26 185 0.0 1.6 0.00 0.00 0.00 83 1008.0
20260506030427 26 185 0.0 1.6 0.00 0.00 0.00 82 1007.9
20260506025927 26 185 0.0 1.6 0.00 0.00 0.00 82 1007.9
20260506025426 26 185 0.0 3.2 0.00 0.00 0.00 82 1007.8
20260506024930 26 185 1.6 3.2 0.00 0.00 0.00 82 1007.8
20260506024426 26 186 0.0 3.2 0.00 0.00 0.00 82 1007.7
20260506023926 26 187 0.0 3.2 0.00 0.00 0.00 82 1007.6
20260506023430 26 184 0.0 3.2 0.00 0.00 0.00 81 1007.4
20260506022927 26 184 0.0 1.6 0.00 0.00 0.00 81 1007.5
20260506022427 26 184 0.0 4.8 0.00 0.00 0.00 81 1007.5
20260506021929 26 184 1.6 3.2 0.00 0.00 0.00 81 1007.5
20260506021430 26 219 3.2 3.2 0.00 0.00 0.00 81 1007.5
20260506020926 26 219 0.0 1.6 0.00 0.00 0.00 80 1007.3
20260506020427 26 219 1.6 3.2 0.00 0.00 0.00 80 1007.3
20260506015927 26 219 1.6 3.2 0.00 0.00 0.00 80 1007.2
20260506015428 26 219 1.6 3.2 0.00 0.00 0.00 80 1007.3
20260506014926 26 219 0.0 3.2 0.00 0.00 0.00 80 1007.2
20260506014429 26 219 0.0 3.2 0.00 0.00 0.00 80 1007.1
20260506013930 26 229 1.6 3.2 0.00 0.00 0.00 79 1007.1
20260506013426 26 234 0.0 3.2 0.00 0.00 0.00 79 1007.0
20260506012927 26 248 1.6 3.2 0.00 0.00 0.00 79 1006.9
20260506012427 26 223 0.0 1.6 0.00 0.00 0.00 79 1006.8
20260506011927 26 223 1.6 1.6 0.00 0.00 0.00 79 1006.7
20260506011427 26 223 0.0 3.2 0.00 0.00 0.00 79 1006.6
20260506010926 26 223 0.0 3.2 0.00 0.00 0.00 78 1006.5
20260506010426 27 223 3.2 3.2 0.00 0.00 0.00 78 1006.5
20260506005930 27 224 0.0 3.2 0.00 0.00 0.00 78 1006.6
20260506005426 27 224 1.6 1.6 0.00 0.00 0.00 78 1006.5
20260506004926 27 224 0.0 3.2 0.00 0.00 0.00 78 1006.4
20260506004427 27 224 0.0 1.6 0.00 0.00 0.00 78 1006.4